[TLELIST] Archives

 

[list_settings.list_name] Current TLEs

September 28th 2014 PDT

HST 1 20580U 90037B 14270.53529884 .00003516 00000-0 22489-3 0 1234 2 20580 028.4701 084.1589 0002885 307.5245 108.2108 15.05799834140155 ISS (ZARYA) 1 25544U 98067A 14271.10863476 .00011538 00000-0 20486-3 0 1689 2 25544 051.6474 309.4494 0001857 122.9891 328.9622 15.50687298907295 CXO 1 25867U 99040B 14273.67980584 .00000442 00000-0 00000+0 0 893 2 25867 076.9966 316.5090 7964592 272.8225 359.9444 00.37803596 12313 ____________________________________________________________________ These 2-Line ...Continue Reading

[list_settings.list_name] Current TLEs

September 27th 2014 PDT

HST 1 20580U 90037B 14269.33576389 .00003035 00000-0 19254-3 0 1223 2 20580 028.4700 092.0488 0002834 294.1472 086.2274 15.05791122139976 ISS (ZARYA) 1 25544U 98067A 14270.20947480 .00012390 00000-0 21953-3 0 1640 2 25544 051.6473 313.9088 0001871 129.1555 339.9890 15.50669175907153 CXO 1 25867U 99040B 14268.45805406 .00000000 00000-0 10000-3 0 886 2 25867 076.9858 316.7268 7966115 272.8842 009.1559 00.37810626 12302 ____________________________________________________________________ These 2-Line ...Continue Reading

[list_settings.list_name] Current TLEs

September 26th 2014 PDT

HST 1 20580U 90037B 14266.96955307 .00002315 00000-0 14413-3 0 1200 2 20580 028.4694 107.6130 0002766 267.7109 220.4993 15.05779391139628 ISS (ZARYA) 1 25544U 98067A 14269.23665693 .00013634 00000-0 24090-3 0 1595 2 25544 051.6469 318.7310 0002142 123.6106 311.3415 15.50649834907003 CXO 1 25867U 99040B 14268.45805406 .00000000 00000-0 10000-3 0 886 2 25867 076.9858 316.7268 7966115 272.8842 009.1559 00.37810626 12302 ____________________________________________________________________ These 2-Line ...Continue Reading

[list_settings.list_name] Current TLEs

September 25th 2014 PDT

HST 1 20580U 90037B 14266.96955307 .00002315 00000-0 14413-3 0 1200 2 20580 028.4694 107.6130 0002766 267.7109 220.4993 15.05779391139628 ISS (ZARYA) 1 25544U 98067A 14268.21056891 .00012999 00000-0 23031-3 0 1526 2 25544 051.6473 323.8201 0002158 128.7486 334.5000 15.50618924906842 CXO 1 25867U 99040B 14271.03465626 .00000392 00000-0 00000+0 0 890 2 25867 076.9979 316.6076 7968178 272.8340 359.9623 00.37804227 12304 ____________________________________________________________________ These 2-Line ...Continue Reading

[list_settings.list_name] Current TLEs

September 24th 2014 PDT

HST 1 20580U 90037B 14266.90361145 .00002318 00000-0 14435-3 0 1190 2 20580 028.4695 108.0468 0002764 266.9733 223.0739 15.05779044139611 ISS (ZARYA) 1 25544U 98067A 14267.23973572 .00011998 00000-0 21345-3 0 1457 2 25544 051.6475 328.6329 0002108 121.7369 318.5476 15.50588143906697 CXO 1 25867U 99040B 14265.81419483 .00000000 00000-0 10000-3 0 878 2 25867 076.9857 316.8326 7969849 272.9265 009.2259 00.37811553 12290 ____________________________________________________________________ These 2-Line ...Continue Reading

[list_settings.list_name] Current TLEs

September 23rd 2014 PDT

HST 1 20580U 90037B 14265.04890076 .00002502 00000-0 15675-3 0 1174 2 20580 028.4693 120.2463 0002760 243.2012 252.9909 15.05770156139338 ISS (ZARYA) 1 25544U 98067A 14266.21457330 .00014240 00000-0 25195-3 0 1363 2 25544 051.6476 333.7159 0002117 131.1360 342.8524 15.50569589906532 CXO 1 25867U 99040B 14268.39070517 .00000365 00000-0 00000+0 0 830 2 25867 076.9970 316.7223 7971025 272.8476 000.1270 00.37805587 12296 ____________________________________________________________________ These 2-Line ...Continue Reading

[list_settings.list_name] Current TLEs

September 22nd 2014 PDT

HST 1 20580U 90037B 14265.04890076 .00002502 00000-0 15675-3 0 1174 2 20580 028.4693 120.2463 0002760 243.2012 252.9909 15.05770156139338 ISS (ZARYA) 1 25544U 98067A 14265.44058507 .00008394 00000-0 15202-3 0 1305 2 25544 051.6468 337.5558 0002256 114.4668 356.2533 15.50537923906410 CXO 1 25867U 99040B 14265.74863994 .00000375 00000-0 00000+0 0 825 2 25867 076.9943 316.8502 7972011 272.8707 000.4984 00.37803211 12286 ____________________________________________________________________ These 2-Line ...Continue Reading

[list_settings.list_name] Current TLEs

September 21st 2014 PDT

HST 1 20580U 90037B 14263.84811894 .00002774 00000-0 17511-3 0 1162 2 20580 028.4695 128.1445 0002761 230.4336 223.7388 15.05766024139140 ISS (ZARYA) 1 25544U 98067A 14264.40707194 .00019534 00000-0 34290-3 0 1242 2 25544 051.6473 342.6753 0002485 106.2519 351.7036 15.50533475906256 CXO 1 25867U 99040B 14265.74863994 .00000375 00000-0 00000+0 0 825 2 25867 076.9943 316.8502 7972011 272.8707 000.4984 00.37803211 12286 ____________________________________________________________________ These 2-Line ...Continue Reading

[list_settings.list_name] Current TLEs

September 20th 2014 PDT

HST 1 20580U 90037B 14261.78690397 .00002607 00000-0 16388-3 0 1139 2 20580 028.4698 141.7007 0002854 205.5287 213.2684 15.05754638138835 ISS (ZARYA) 1 25544U 98067A 14263.23408019 .00019534 00000-0 34347-3 0 1182 2 25544 051.6471 348.4908 0002417 115.3014 270.8839 15.50486697906071 CXO 1 25867U 99040B 14265.74863994 .00000375 00000-0 00000+0 0 825 2 25867 076.9943 316.8502 7972011 272.8707 000.4984 00.37803211 12286 ____________________________________________________________________ These 2-Line ...Continue Reading

[list_settings.list_name] Current TLEs

September 19th 2014 PDT

HST 1 20580U 90037B 14261.78690397 .00002607 00000-0 16388-3 0 1139 2 20580 028.4698 141.7007 0002854 205.5287 213.2684 15.05754638138835 ISS (ZARYA) 1 25544U 98067A 14262.21369931 .00018885 00000-0 33286-3 0 1086 2 25544 051.6467 353.5492 0002386 112.1871 334.7909 15.50443519905918 CXO 1 25867U 99040B 14263.10369274 .00000396 00000-0 00000+0 0 749 2 25867 076.9918 316.9571 7972661 272.9180 000.4144 00.37798461 12279 ____________________________________________________________________ These 2-Line ...Continue Reading
  • This mailing list is a public mailing list - anyone may join or leave, at any time.
  • This mailing list is announce-only.

International Space Station (ISS) / Hubble Space Telescope (HST) / Chandra X-Ray Observatory Orbital Data via EMAIL

Privacy Policy:

Private list